CDT,Max TemperatureF,Mean TemperatureF,Min TemperatureF,Max Dew PointF,MeanDew PointF,Min DewpointF,Max Humidity, Mean Humidity, Min Humidity, Max Sea Level PressureIn, Mean Sea Level PressureIn, Min Sea Level PressureIn, Max VisibilityMiles, Mean VisibilityMiles, Min VisibilityMiles, Max Wind SpeedMPH, Mean Wind SpeedMPH, Max Gust SpeedMPH,PrecipitationIn, CloudCover, Events, WindDirDegrees
2013-4-1,38,32,26,25,18,14,70,54,41,30.22,30.13,29.96,10,10,10,17,11,24,0.00,2,,290
2013-4-2,43,33,23,22,16,8,82,54,26,30.34,30.27,30.22,10,10,10,16,7,26,0.00,1,,274
2013-4-3,46,33,21,29,17,7,82,54,23,30.46,30.38,30.30,10,10,10,9,3,,0.00,0,,111
2013-4-4,59,44,28,39,28,21,77,56,29,30.30,30.13,30.00,10,10,10,16,9,22,0.00,1,,216
2013-4-5,53,42,33,33,26,16,84,56,25,30.25,30.16,30.07,10,10,10,16,7,22,0.00,2,,40
2013-4-6,67,52,36,51,35,22,87,60,30,30.11,29.81,29.59,10,10,7,34,15,40,0.02,4,Rain-Thunderstorm,146
2013-4-7,61,51,41,48,40,36,87,72,47,29.97,29.88,29.66,10,10,7,24,12,30,0.00,3,,256
2013-4-8,66,52,39,55,47,35,94,82,60,29.96,29.78,29.54,10,7,1,17,10,22,0.80,3,Rain-Thunderstorm,25
2013-4-9,51,46,41,49,42,38,94,92,87,29.97,29.92,29.84,10,6,1,23,13,30,0.61,7,Rain-Thunderstorm,43
2013-4-10,41,38,34,39,37,32,93,92,87,30.04,29.92,29.84,10,8,2,26,17,33,0.98,8,Rain-Thunderstorm,33
2013-4-11,45,42,38,43,39,36,95,93,90,29.82,29.65,29.57,10,5,1,29,17,38,0.21,8,Rain,58
2013-4-12,43,38,35,38,35,32,93,86,77,29.86,29.69,29.57,10,9,3,20,12,25,0.00,8,,235
2013-4-13,44,38,33,35,30,27,86,74,57,29.99,29.92,29.86,10,10,10,18,11,25,0.00,7,,249
2013-4-14,71,52,36,53,41,31,85,69,49,30.00,29.79,29.57,10,10,4,26,13,36,0.00,4,Snow-Thunderstorm,87
2013-4-15,64,52,41,55,46,37,94,80,39,30.02,29.83,29.58,10,8,0,29,11,36,0.58,6,Fog-Rain-Thunderstorm,230
2013-4-16,56,46,34,39,35,31,92,69,40,30.28,30.15,29.99,10,10,10,15,7,,0.00,3,Rain,316
2013-4-17,46,44,41,45,39,33,95,85,67,30.30,30.10,29.80,10,7,0,24,12,30,1.34,8,Rain-Thunderstorm,58
2013-4-18,61,50,38,60,48,32,100,92,78,29.84,29.58,29.40,10,6,0,31,12,39,1.55,8,Fog-Rain-Thunderstorm,130
2013-4-19,43,37,33,34,31,27,90,79,65,29.96,29.64,29.49,10,10,1,26,18,37,0.00,8,Snow,246
2013-4-20,59,43,28,29,22,14,88,55,18,30.39,30.22,29.97,10,10,10,13,6,18,0.00,3,,285
2013-4-21,59,45,31,40,32,27,87,61,42,30.49,30.37,30.28,10,10,10,23,13,28,0.00,4,,124
2013-4-22,72,56,41,44,38,34,78,55,27,30.29,30.16,30.03,10,10,10,18,11,24,0.00,3,Rain,143
2013-4-23,53,46,38,50,41,32,94,90,72,30.05,29.99,29.94,10,8,3,15,8,22,0.39,8,Rain,292
2013-4-24,59,46,34,33,28,21,83,56,24,30.08,30.05,29.98,10,10,10,17,9,25,0.00,2,,268
2013-4-25,59,48,34,39,31,21,93,62,26,30.31,30.20,30.05,10,10,5,20,12,25,0.01,4,Rain,234
2013-4-26,71,52,34,47,40,29,82,59,39,30.30,30.26,30.21,10,10,10,28,12,38,0.00,2,,161
2013-4-27,69,56,45,51,46,42,91,66,41,30.28,30.17,30.02,10,10,5,14,8,20,0.00,4,,154
2013-4-28,84,64,46,53,49,44,92,68,27,30.01,29.91,29.83,10,9,4,10,2,,0.00,5,,150
2013-4-29,79,64,49,59,53,47,93,69,38,29.91,29.82,29.73,10,9,4,25,11,30,0.00,1,Rain-Thunderstorm,160
2013-4-30,88,74,61,64,54,42,89,56,21,29.93,29.79,29.72,10,10,10,28,18,39,0.00,0,Thunderstorm,171